Regional Weather Roundup
Issued by NWS Cleveland, OH

Home | Current Version | Previous Version | Graphics & Text | Print | Product List | Glossary On
Versions: 1 2 3 4 5 6 7 8 9 10 11 12 13 14 15 16 17 18 19 20 21 22 23 24 25 26 27 28 29 30 31 32 33 34 35 36 37 38 39 40 41 42 43 44 45 46 47 48 49 50
000
ASUS41 KCLE 301000
RWRCLE
OHIO REGIONAL WEATHER ROUNDUP
NATIONAL WEATHER SERVICE WILMINGTON, OH
600 AM EDT TUE AUG 30 2016

NOTE: "FAIR" INDICATES FEW OR NO CLOUDS BELOW 12,000 FEET WITH NO
SIGNIFICANT WEATHER AND/OR OBSTRUCTIONS TO VISIBILITY.

OHZ001>008-015>018-024>027-034-035-043-044-301100-
   NORTHWEST OHIO

CITY           SKY/WX    TMP DP  RH WIND       PRES   REMARKS
DEFIANCE       FAIR      64  61  90 CALM      30.18S
FINDLAY        FAIR      59  55  87 S5        30.17S
TOLEDO EXPRESS FAIR      62  62 100 CALM      30.18F
TOLEDO EXEC    FAIR      63  62  97 CALM      30.18F
LIMA           FAIR      62  61  96 CALM      30.18S
$$

OHZ009>014-019>023-028>033-038-089-301100-
   NORTHEAST OHIO

CITY           SKY/WX    TMP DP  RH WIND       PRES   REMARKS
CLE-HOPKINS    FAIR      62  56  80 S3        30.21S
CLE-LAKEFRONT  FAIR      67  57  70 SE8       30.18S
CUY CO. ARPT   NOT AVBL
LORAIN-ELYRIA  FAIR      55  54  96 CALM      30.20S FOG
ASHTABULA      FAIR      55  55 100 CALM      30.21S
AKRON-CANTON   FAIR      63  55  75 E6        30.20S
WOOSTER        NOT AVBL
MANSFIELD      FAIR      62  56  80 SE6       30.20F
YOUNGSTOWN     FAIR      55  53  93 E6        30.21S
$$

OHZ042-051>053-060>062-070>072-077>081-301100-
  SOUTHWEST OHIO

CITY           SKY/WX    TMP DP  RH WIND       PRES   REMARKS
CINC-COVINGTON FAIR      73  69  87 N5        30.16F
CINC-LUNKEN    FOG       68  68 100 CALM      30.16S VSB 1
HAMILTON       FAIR      66  64  93 CALM      30.17S
DAYTON         NOT AVBL
WRIGHT-PAT AFB NOT AVBL
DAYTON GENERAL FAIR      67  63  87 NE9       30.17S
WILMINGTON     FAIR      66  63  90 E5        30.17F
$$

OHZ036-037-039>041-045>050-054>059-063>069-073>076-082>088-301100-
  CENTRAL AND SOUTHEAST OHIO

CITY           SKY/WX    TMP DP  RH WIND       PRES   REMARKS
COLUMBUS       FAIR      64  60  87 NE3       30.17F
OSU AIRPORT    FAIR      64  61  90 CALM      30.18F
BOLTON FIELD   NOT AVBL
RICKENBACK AFB NOT AVBL
NEWARK         FAIR      60  58  92 CALM      30.18F
MARION         FAIR      63  58  83 CALM      30.19F
LANCASTER      FAIR      60  60 100 CALM      30.18F
ZANESVILLE     FAIR      60  58  92 N5        30.19S
NEW PHILLY     FAIR      60  55  83 CALM      30.20S
$$




USA.gov is the U.S. government's official web portal to all federal, state and local government web resources and services.